GFSSGP_prec_cloud_324.txt.gz
Cloud_Cover
100 100 100 100 41 20 4 87 8 1 1 30 50 0 0 0 0 4 5 5 70 62 38 5 7 5 71 99 100 5 5 5 5 8 0 0 1 1 0 1 10 5 5 8 6 8 25 14 5
100 100 100 100 5 38 99 3 0 0 5 4 2 0 0 0 0 0 0 3 5 5 5 5 5 8 6 28 10 4 5 3 3 2 6 16 1 0 6 7 5 5 16 51 97 100 100 100 89
100 100 100 100 48 46 33 100 5 0 4 0 0 0 0 0 0 0 0 5 16 22 35 9 5 90 5 2 5 1 1 5 4 5 2 0 1 0 1 1 5 35 100 92 100 96 100 100 100
100 100 100 100 73 98 47 6 0 0 0 0 0 0 0 0 0 0 5 48 58 94 94 64 5 15 4 4 4 2 5 0 8 10 12 6 2 0 0 3 5 6 76 96 49 100 99 99 100
100 100 100 97 88 8 5 4 0 0 0 0 0 0 0 0 0 5 5 5 11 5 0 0 0 5 8 5 0 6 4 4 1 0 0 8 7 5 8 15 95 100 100 18 5 37 100 95 100
100 100 100 100 63 14 11 30 2 0 0 0 0 0 0 0 0 0 0 5 3 0 0 0 0 2 0 0 1 3 1 0 2 1 4 5 5 5 5 88 100 100 100 100 88 48 100 100 72
100 100 100 100 54 33 75 27 0 0 0 0 0 0 0 0 0 4 24 0 0 0 0 0 0 0 7 0 3 4 3 0 7 0 5 5 5 23 55 66 75 100 64 58 6 99 100 100 100
100 100 100 65 14 80 87 90 0 0 0 0 0 0 0 0 0 66 19 0 0 0 0 0 0 0 0 0 10 0 10 2 0 2 32 100 100 100 97 66 100 100 100 100 100 91 100 100 100
100 100 96 47 30 5 17 20 1 42 5 0 0 0 0 0 0 9 0 0 0 0 0 0 0 0 0 0 0 4 5 0 7 100 91 99 100 100 100 100 100 100 100 100 100 96 100 100 100
100 100 36 28 71 40 0 0 0 0 35 0 0 0 1 0 0 0 0 0 0 0 0 0 0 0 0 4 8 14 1 5 64 100 99 100 100 100 100 100 100 100 100 98 100 100 100 100 93
78 47 6 84 19 43 4 1 0 0 0 0 0 0 0 0 1 5 0 0 0 0 0 0 0 5 4 5 18 20 100 100 100 100 100 100 100 100 100 100 100 100 99 100 100 100 91 8 4
64 5 22 99 95 38 4 3 0 0 2 0 0 0 5 0 0 0 2 3 1 0 0 0 0 0 0 4 32 100 100 100 100 100 100 93 100 100 100 100 100 100 100 100 100 100 100 100 82
98 95 1 78 99 100 38 97 70 0 0 0 0 0 0 0 0 0 4 0 0 0 0 0 0 0 0 10 97 92 100 100 100 100 82 100 100 83 100 100 100 100 100 100 100 100 99 35 5
39 95 21 8 5 5 1 6 5 96 5 0 0 0 1 2 0 22 0 0 0 0 0 0 0 0 2 0 0 3 91 100 100 100 64 90 100 100 100 100 100 100 100 100 97 70 15 65 72
60 98 4 0 0 2 8 5 0 2 30 0 2 4 5 43 33 1 0 0 0 0 0 0 0 0 0 0 2 4 0 3 8 39 2 78 100 100 100 100 100 100 100 22 36 15 100 100 32
59 52 38 5 94 3 11 5 7 3 6 4 10 12 11 1 3 4 0 0 0 0 0 0 0 0 0 0 0 0 0 2 3 0 0 2 1 4 39 82 56 28 26 99 93 5 17 5 5
100 100 87 46 5 54 100 68 16 6 38 1 9 100 77 80 25 82 24 1 7 0 0 0 0 0 0 0 0 0 13 0 0 0 0 0 22 6 0 9 5 10 100 87 17 4 26 100 77
80 97 21 66 39 99 25 100 100 78 5 65 13 100 100 100 98 91 58 46 6 4 0 0 0 0 0 0 0 0 31 2 23 29 6 3 78 77 81 19 5 22 100 100 100 100 86 18 97
100 18 28 100 84 51 51 100 71 99 4 42 93 100 100 100 100 100 100 100 5 5 10 5 0 0 0 0 0 0 0 0 6 96 4 5 0 4 30 5 47 27 100 100 100 100 100 81 50
100 40 90 87 93 70 26 69 44 41 100 100 89 99 100 100 100 100 100 100 99 48 36 3 24 0 0 0 0 0 0 0 5 46 85 5 39 27 92 100 89 31 48 39 84 100 100 92 11
100 86 100 98 94 100 100 100 96 71 95 100 96 100 100 100 100 78 100 99 100 23 4 8 5 1 0 0 0 0 0 2 0 13 100 36 88 100 100 100 100 100 100 100 100 90 90 100 26
100 100 99 100 100 98 100 100 100 87 96 100 100 99 100 94 100 97 100 100 100 100 97 8 0 1 1 0 0 1 3 22 93 99 100 100 100 100 100 100 100 100 100 100 100 100 88 100 83
99 100 100 100 100 100 100 56 88 100 93 5 6 100 100 100 100 100 100 100 100 100 100 84 49 12 4 2 5 10 40 26 86 94 100 100 100 100 100 100 100 100 100 100 100 100 100 100 100
100 100 100 100 100 100 100 97 59 100 91 3 8 79 96 100 100 100 100 100 100 100 100 100 54 68 62 5 93 41 64 100 97 100 100 80 99 100 100 100 100 100 100 100 100 100 100 100 100
100 100 100 98 63 100 100 95 97 97 95 6 4 13 99 100 100 100 100 100 100 99 100 100 100 98 71 42 62 78 79 100 100 100 100 100 100 100 100 64 82 100 100 100 100 100 100 100 100
100 100 100 98 68 6 5 2 97 43 100 50 5 4 98 100 100 100 100 100 100 100 100 100 100 100 94 100 100 100 100 100 99 100 100 100 100 100 100 100 100 98 100 100 100 100 100 100 100
68 12 81 67 80 9 24 6 5 13 79 29 99 87 18 95 100 100 100 100 100 100 100 100 100 100 100 100 100 100 100 100 100 100 99 100 100 100 100 100 100 100 100 100 100 100 99 100 100
0 10 36 96 23 5 4 4 4 4 15 10 18 100 100 100 100 100 100 100 100 100 100 100 100 100 100 100 100 100 100 100 100 100 100 85 100 52 22 76 96 100 100 100 100 100 100 100 100
0 0 0 1 3 1 1 39 9 5 18 5 100 100 100 100 100 100 100 100 100 100 100 100 100 100 100 100 100 100 100 100 100 88 100 100 33 14 6 5 4 5 75 100 100 100 100 100 100
0 5 2 0 0 0 0 0 25 100 100 100 100 100 100 100 100 100 100 100 100 100 100 100 100 100 100 100 100 100 94 82 87 86 47 40 28 6 4 5 5 16 5 3 69 100 97 98 87

GFSSGP_prec_cloud_327.txt.gz
Cloud_Cover
100 100 100 90 70 62 14 5 9 3 28 4 0 0 17 0 2 35 26 73 87 100 100 99 64 59 38 12 5 5 5 0 1 1 0 0 0 0 5 5 5 10 46 100 100 100 100 85 94
99 100 100 77 61 44 5 0 5 0 0 0 0 0 0 0 0 9 7 7 97 98 5 16 100 100 87 19 58 9 1 2 0 0 1 1 3 14 28 35 5 49 100 100 100 100 100 100 100
99 100 100 51 5 5 1 53 34 4 4 0 16 0 0 2 3 5 11 85 98 100 54 64 100 100 73 5 5 2 1 0 0 0 0 0 5 5 76 5 5 72 65 36 83 99 100 100 100
100 100 55 13 5 4 0 0 0 3 0 0 0 0 0 0 5 7 99 100 100 100 99 99 100 100 68 1 12 5 5 0 1 0 2 4 0 4 5 4 5 12 8 61 37 25 100 100 100
100 100 94 5 5 0 0 2 2 1 0 0 0 0 0 0 4 10 93 97 56 19 80 10 100 71 2 5 5 5 0 7 3 8 0 1 5 5 5 5 4 97 66 55 91 100 100 100 84
100 100 90 49 5 0 4 2 5 0 0 0 0 3 4 4 0 5 27 58 0 5 19 2 71 6 5 5 5 4 5 10 3 2 1 7 15 18 28 5 5 11 65 100 86 100 100 29 83
100 100 62 76 60 5 32 12 4 0 4 0 0 0 2 0 0 0 3 0 0 9 19 2 7 6 0 5 6 10 14 2 3 0 2 5 5 87 100 100 94 91 100 100 100 100 100 98 100
100 100 66 88 88 83 12 5 5 1 0 0 0 0 5 0 0 0 0 0 1 17 2 1 0 0 0 0 0 7 1 13 99 100 100 78 11 92 100 88 100 100 100 100 100 100 100 100 64
100 100 17 18 38 68 88 59 63 44 2 2 0 0 0 0 0 0 0 0 19 25 4 5 0 0 0 0 3 4 4 26 51 75 82 100 100 100 100 57 100 100 58 98 100 92 80 7 89
100 95 23 31 48 2 8 7 1 1 0 0 3 0 0 0 0 0 0 0 1 10 1 5 4 5 3 6 11 59 67 90 100 100 100 100 89 98 100 100 97 98 100 100 100 75 100 29 5
100 92 60 63 100 5 0 5 5 39 3 0 0 0 0 0 0 0 0 0 0 0 0 4 48 12 80 99 99 81 100 100 100 100 100 100 100 100 100 76 90 77 100 100 100 88 100 99 5
99 89 43 100 36 12 6 5 8 10 31 0 0 0 0 0 0 0 0 0 0 0 0 0 17 45 54 90 88 71 95 100 100 100 80 100 99 90 65 97 91 93 100 95 100 13 100 5 5
94 100 22 100 82 11 36 68 4 2 2 4 5 1 0 0 0 0 0 0 0 0 0 0 0 0 2 52 100 100 54 88 93 67 82 33 71 53 75 82 95 83 100 100 100 100 86 57 5
38 4 8 37 3 8 5 7 99 100 77 5 63 90 37 0 0 0 0 0 0 0 0 0 0 0 0 0 70 100 100 100 100 99 100 100 100 100 100 67 100 100 96 98 100 100 89 48 16
8 6 0 0 5 0 3 9 94 5 7 5 0 6 19 87 2 5 13 0 0 0 0 0 0 0 0 0 0 0 0 1 63 27 10 100 100 100 100 100 100 100 100 100 100 98 100 59 36
100 77 26 5 6 5 22 29 98 90 67 57 1 31 100 31 65 8 8 12 5 0 0 1 0 0 0 0 0 0 0 0 0 5 5 5 5 12 89 100 94 100 100 100 100 100 71 100 69
86 95 52 60 26 10 29 66 9 8 3 10 2 8 98 100 100 100 100 57 80 95 82 45 0 6 2 4 0 0 0 0 2 5 5 3 19 83 12 8 10 32 74 100 100 94 100 100 100
100 66 45 100 93 5 7 5 74 18 1 0 0 16 85 82 100 100 100 96 86 9 86 13 59 5 5 4 0 0 0 1 8 5 5 5 8 5 6 6 18 78 81 100 69 89 91 95 97
100 58 98 69 100 62 6 11 5 91 60 2 2 5 5 14 92 100 100 100 100 97 88 5 7 8 100 92 5 5 4 56 0 2 4 24 98 21 20 6 8 57 100 100 100 100 100 99 98
100 88 91 100 58 87 5 65 41 37 5 20 49 10 48 80 99 100 100 100 100 100 14 5 5 18 43 65 7 3 1 6 14 25 7 4 99 100 100 100 100 100 100 100 100 100 100 100 100
100 64 89 100 99 99 86 17 53 100 99 34 32 28 38 96 92 90 94 98 100 97 92 96 86 100 98 94 17 17 100 100 57 46 85 54 100 100 100 100 100 100 100 100 100 91 100 96 68
100 100 100 98 100 99 96 96 100 96 56 27 5 17 39 87 100 100 98 82 61 78 92 84 100 55 37 55 93 80 94 98 94 98 74 98 98 100 90 100 100 100 100 100 100 85 69 81 83
100 73 96 100 100 100 80 100 92 86 100 100 8 83 70 94 89 100 97 100 100 100 100 49 51 100 100 72 93 100 100 100 100 100 85 100 95 100 100 100 100 100 99 100 100 98 100 100 95
100 100 100 98 90 100 83 100 100 69 86 100 64 100 100 100 98 96 100 100 100 100 100 99 90 100 39 34 79 80 100 100 100 100 100 100 96 95 96 96 95 81 82 95 90 78 99 97 100
100 83 26 93 100 86 6 71 55 47 66 100 100 90 100 83 100 100 100 100 100 100 100 100 98 78 8 78 34 69 86 99 100 100 100 100 100 100 100 80 73 45 80 94 97 97 100 100 100
100 100 64 99 94 58 79 69 46 44 82 99 100 85 89 100 100 100 100 100 100 100 100 100 100 100 100 77 77 54 98 100 100 100 100 100 100 100 100 98 100 100 100 100 100 100 100 100 100
0 4 33 80 99 79 55 38 20 61 86 100 100 75 100 100 100 100 100 100 100 100 100 100 100 100 100 100 100 100 100 100 100 100 100 100 100 100 97 95 100 100 100 100 100 100 100 100 100
0 0 0 0 1 0 2 16 29 40 1 5 50 97 65 100 100 100 100 100 100 100 100 100 100 100 100 100 100 100 100 100 100 100 100 100 100 100 100 99 98 74 53 99 100 100 100 100 85
0 0 0 0 0 0 0 0 0 0 0 0 31 60 93 100 100 100 100 100 100 100 100 100 100 100 100 100 100 100 100 100 100 100 100 100 100 100 100 100 99 10 4 28 14 22 7 68 97
0 0 0 0 0 5 5 0 0 0 0 0 84 86 100 100 100 100 100 100 100 100 100 100 100 100 100 100 100 100 100 100 100 100 100 100 100 98 92 30 23 4 0 0 4 30 99 100 100

GFSSGP_prec_cloud_333.txt.gz
Cloud_Cover
87 97 5 5 3 0 2 3 0 0 4 0 38 28 75 16 45 65 91 21 95 94 36 100 74 99 5 14 5 5 5 3 6 1 4 3 1 1 13 15 32 16 45 98 50 0 5 5 1
30 16 5 5 4 2 0 0 0 2 1 0 5 66 96 8 5 13 5 36 65 81 43 47 88 13 5 4 0 4 0 4 1 0 1 8 7 7 5 53 58 54 44 92 5 2 5 32 68
100 8 5 0 0 0 1 0 0 0 0 0 2 0 1 5 24 5 5 5 14 26 19 9 92 4 5 0 1 3 8 4 0 1 0 1 5 4 5 15 0 4 11 99 6 5 5 5 59
6 63 4 0 5 0 5 0 0 0 0 0 0 1 3 30 5 12 29 5 5 3 9 3 5 2 5 5 1 0 3 0 11 0 6 3 11 0 0 0 10 2 45 75 5 5 5 23 5
99 7 5 1 5 0 1 1 0 0 0 0 0 0 3 5 5 48 4 94 4 11 29 13 3 0 0 0 15 0 1 7 5 6 7 2 1 5 2 6 7 60 100 100 97 28 5 12 19
87 10 4 0 5 4 3 0 0 0 0 0 0 0 11 5 5 4 0 1 0 2 32 16 0 0 6 0 2 0 0 3 1 1 5 11 14 40 5 60 100 100 100 22 6 12 5 12 28
100 17 5 2 5 5 5 0 0 0 0 0 0 0 6 1 3 0 0 0 12 22 6 5 9 22 0 0 0 9 30 57 12 5 20 61 100 100 53 85 96 16 7 20 6 96 19 32 5
100 37 5 3 5 5 5 0 0 0 0 0 0 0 0 0 0 0 0 2 31 25 7 34 58 25 30 2 0 10 13 9 5 28 98 96 100 75 80 7 54 4 60 6 88 51 100 5 5
100 5 3 4 5 5 5 1 0 0 0 0 0 0 0 0 0 0 0 26 48 40 6 5 26 6 14 15 17 24 37 38 85 94 100 86 24 86 87 99 100 25 5 5 5 41 100 5 5
100 8 58 3 0 0 0 1 0 0 0 0 0 0 0 0 0 0 0 1 3 6 12 16 9 14 6 63 97 60 26 48 36 98 100 100 98 44 6 6 58 5 31 81 27 13 81 5 5
65 8 1 19 0 0 0 0 0 0 0 0 0 0 0 0 0 0 0 0 2 4 14 93 100 99 49 10 86 97 67 68 70 24 26 17 6 5 19 94 42 74 74 63 5 97 71 4 5
91 17 5 16 1 0 0 1 0 0 0 0 0 0 0 0 0 0 0 0 0 0 0 0 1 7 4 1 21 11 11 59 48 63 16 5 4 5 56 91 99 81 81 82 29 100 66 0 3
100 9 5 5 4 5 0 3 4 40 0 0 1 0 0 1 0 5 0 0 0 0 0 1 1 23 9 7 1 4 4 2 5 4 23 32 5 5 5 6 23 7 6 100 99 11 6 82 5
85 5 2 4 2 0 0 0 0 5 4 5 4 0 3 5 4 5 4 2 1 0 2 5 1 0 14 0 0 0 0 4 1 1 3 41 16 38 26 44 36 5 4 10 5 5 3 89 38
12 5 39 4 0 5 4 0 2 4 2 0 0 3 1 7 99 98 54 42 99 92 92 83 5 5 9 5 17 69 96 5 5 2 0 4 5 36 55 7 7 5 5 55 53 5 7 99 100
6 5 5 5 4 60 6 5 5 36 100 22 0 0 0 4 46 100 100 86 99 100 90 98 96 14 6 16 8 100 49 9 96 7 0 3 4 4 35 9 5 1 4 5 100 92 29 48 37
97 47 5 5 6 8 19 3 5 29 73 12 3 0 0 0 13 79 97 92 81 100 95 42 76 48 23 37 73 11 5 6 78 44 5 32 44 5 5 5 5 5 4 5 96 100 100 100 98
5 18 28 41 78 5 8 4 5 5 6 5 3 0 4 4 2 4 28 16 17 53 66 28 24 16 4 4 17 41 16 18 89 100 5 15 60 100 100 100 93 20 87 97 99 100 100 100 100
5 100 96 6 5 3 5 5 5 5 5 17 5 5 4 5 1 36 22 100 80 5 76 12 5 5 4 5 5 6 18 82 100 100 99 10 94 58 51 100 100 100 100 100 100 100 100 78 95
7 8 5 5 5 2 5 5 6 18 5 5 5 10 33 5 5 6 19 100 41 86 50 81 22 7 2 5 8 54 58 82 100 100 100 73 100 100 100 66 100 100 100 100 100 100 100 100 83
36 5 5 5 34 82 62 94 81 60 49 5 5 5 5 5 5 5 15 51 38 63 100 63 99 26 5 5 47 42 95 100 100 71 100 96 78 98 100 43 96 99 100 100 100 100 99 93 96
87 47 16 2 3 5 5 7 67 98 100 80 36 5 5 5 4 5 33 34 57 74 99 96 100 100 90 74 99 98 100 100 100 100 100 100 76 68 100 100 100 100 100 100 100 100 100 100 49
36 69 6 61 5 10 94 39 8 9 5 74 57 9 29 17 5 5 87 39 51 39 100 100 100 100 100 100 100 100 100 98 31 39 99 100 100 100 88 100 100 100 100 100 100 100 100 62 96
0 0 24 95 100 100 99 100 66 46 50 69 96 100 100 91 33 23 59 92 100 100 100 100 100 100 100 99 99 100 100 83 33 99 100 100 100 100 84 100 100 100 100 100 100 100 100 100 96
0 0 0 0 1 33 67 78 92 77 30 39 69 94 100 100 100 98 97 92 93 100 100 100 100 100 100 100 100 98 84 98 99 87 81 100 100 100 100 100 100 100 100 100 99 100 86 100 100
0 0 0 0 0 0 0 0 0 0 1 15 100 100 82 100 100 97 100 100 100 100 100 100 100 100 100 100 100 100 100 91 100 100 100 100 100 100 100 100 100 100 100 100 100 100 100 78 81
0 0 0 0 0 0 0 0 0 0 0 3 2 0 0 0 0 0 5 98 96 100 100 100 100 100 100 100 100 100 100 98 100 100 100 100 100 100 100 100 100 100 100 100 100 100 100 97 85
0 0 0 0 0 0 0 0 0 0 0 0 41 5 4 20 24 0 0 5 44 87 100 100 100 95 79 100 100 100 100 100 100 100 100 100 100 100 100 100 100 100 100 100 100 100 100 92 98
0 0 0 0 0 0 0 0 0 0 0 0 0 0 0 15 32 44 56 75 86 100 100 100 99 100 100 100 100 100 100 100 100 100 100 100 100 100 100 100 100 100 100 100 100 100 100 100 100
0 0 0 0 0 0 0 0 0 0 0 0 0 0 44 84 100 99 100 93 100 100 100 100 100 100 100 100 100 100 100 100 100 100 100 100 100 100 100 100 100 100 100 100 100 100 100 100 100

GFSSGP_prec_cloud_336.txt.gz
Cloud_Cover
62 27 3 0 9 100 92 6 26 0 0 0 5 48 13 93 63 19 55 62 63 91 43 100 24 100 92 89 5 5 5 0 0 0 1 12 10 7 83 43 5 64 5 10 5 6 5 4 6
27 74 6 0 98 87 58 68 21 1 0 0 0 5 68 31 5 15 18 14 73 80 70 59 5 5 5 48 6 0 0 4 0 2 5 6 45 55 7 6 12 5 10 5 5 5 5 5 5
59 5 5 43 92 100 25 1 0 0 0 0 0 0 4 0 5 5 8 72 53 19 100 27 40 4 2 6 9 1 2 1 5 17 5 78 60 53 14 5 7 96 90 12 7 5 5 5 18
43 6 5 100 21 10 2 0 0 0 0 0 0 0 0 2 5 5 2 5 6 75 27 100 100 2 0 5 4 5 4 8 5 7 5 38 17 5 9 4 8 98 100 100 43 5 5 5 80
4 5 38 46 5 0 0 5 0 0 0 0 0 0 0 5 5 4 0 0 1 5 24 31 40 2 0 0 0 0 0 2 1 5 6 94 13 5 13 89 99 100 12 5 5 5 0 5 5
1 4 95 73 5 5 1 0 0 0 0 0 0 0 0 4 0 0 0 0 0 2 19 4 4 0 0 0 0 0 0 3 7 5 8 13 57 52 12 5 5 7 5 2 5 5 98 0 5
9 64 37 34 5 5 3 0 0 0 0 0 0 0 0 0 0 0 0 0 0 4 22 30 4 0 0 0 0 1 4 5 6 15 89 100 91 24 9 67 93 5 5 5 5 10 100 0 4
82 3 53 35 36 5 4 0 0 0 0 0 0 0 0 0 0 0 0 0 13 1 3 11 47 22 8 0 0 4 5 13 56 99 100 100 100 100 50 74 36 5 5 5 5 36 64 5 3
1 76 91 30 77 0 3 0 0 0 0 0 0 0 0 0 0 0 0 0 3 2 0 0 5 25 29 13 13 52 97 100 100 100 100 55 22 74 10 10 5 5 5 9 5 7 5 5 5
10 98 7 0 0 0 0 0 0 0 0 0 0 0 0 0 0 0 2 4 61 64 96 26 65 28 57 7 69 97 100 86 72 24 38 90 8 3 32 9 14 5 5 5 7 50 5 5 24
55 34 4 0 0 0 0 0 0 0 2 0 0 0 0 0 0 0 0 0 6 5 79 100 12 82 98 23 11 4 10 31 92 76 5 0 4 4 5 7 5 20 55 34 5 100 5 5 5
99 5 4 0 0 0 0 0 0 1 0 0 0 1 5 5 5 1 1 1 0 0 0 3 5 5 24 37 4 4 3 0 0 2 3 5 5 5 15 24 5 5 13 7 8 5 29 6 4
43 4 2 0 0 0 0 0 0 0 0 0 0 0 1 5 69 6 36 18 2 0 0 2 0 1 0 11 2 22 31 0 2 0 0 3 5 48 70 93 62 66 53 5 4 1 18 94 100
53 98 13 1 0 0 0 1 0 0 0 0 2 1 5 30 5 8 17 36 7 8 5 5 5 5 4 4 21 22 0 2 0 0 1 5 68 90 72 80 38 5 7 81 5 5 5 38 31
6 4 5 5 0 5 5 0 5 1 3 7 0 0 6 60 50 46 21 44 5 11 7 5 12 96 86 60 73 36 64 5 5 5 0 4 5 5 8 7 5 5 3 37 100 97 50 82 5
15 12 86 35 5 5 5 99 10 5 6 4 0 0 0 4 41 44 21 52 18 64 5 31 47 4 5 5 4 5 5 4 44 6 5 0 5 5 31 33 9 4 3 0 50 100 100 100 100
5 99 74 89 41 5 5 4 6 5 5 7 4 0 0 5 0 5 5 6 81 16 9 5 5 8 3 1 0 4 2 5 97 100 94 5 14 98 100 98 100 88 26 7 43 76 100 93 88
100 92 82 98 78 65 5 1 38 5 5 2 6 0 0 0 4 4 18 4 5 5 6 35 4 3 5 48 6 5 10 5 83 100 100 96 14 61 96 79 51 100 100 100 100 97 99 38 100
6 60 12 65 5 5 5 5 5 8 5 4 2 5 5 0 0 5 4 10 76 44 5 5 12 5 0 0 0 0 5 18 98 100 100 100 100 22 100 100 54 100 100 67 100 100 98 100 80
96 50 78 10 5 4 5 5 5 5 5 5 3 4 0 0 0 5 5 5 8 11 53 59 37 5 14 3 1 0 0 5 5 44 100 100 82 98 100 98 12 19 100 98 100 100 100 100 100
9 67 97 11 5 5 55 29 64 13 5 5 5 5 5 4 5 5 5 5 55 52 53 56 5 26 10 81 5 10 4 5 4 61 91 56 66 27 18 10 70 71 62 48 52 100 100 100 100
96 5 5 11 5 64 5 45 5 6 11 5 5 5 5 5 5 5 5 5 8 94 57 52 91 47 58 78 100 100 100 37 8 74 100 100 72 53 59 100 100 100 52 100 62 100 100 100 100
0 0 4 5 7 91 61 18 97 5 5 5 26 58 32 8 5 5 5 75 100 58 69 93 92 90 91 100 100 100 100 91 97 19 69 98 57 23 91 100 76 93 100 100 100 100 100 100 100
0 0 3 4 0 17 0 0 18 24 3 5 5 22 45 28 20 6 39 29 87 100 100 100 99 100 100 100 97 96 83 100 100 100 92 87 69 91 30 91 82 92 100 100 100 100 100 100 100
0 2 74 4 5 2 0 0 0 0 0 0 0 0 0 0 0 2 41 100 100 84 100 100 100 100 100 100 100 100 100 58 100 100 72 93 44 49 76 98 100 100 100 100 100 100 100 100 100
0 1 5 18 4 0 0 0 0 0 0 0 0 0 0 0 0 0 6 39 9 38 100 100 100 100 100 100 100 100 100 100 100 99 100 100 88 98 100 100 100 100 100 100 100 100 100 100 88
0 1 1 0 0 0 0 0 0 0 0 0 0 0 0 0 0 0 9 27 0 40 97 75 85 99 100 100 100 100 100 100 100 100 100 100 100 100 100 100 100 100 100 100 100 100 100 100 100
0 0 1 1 0 0 0 0 0 0 0 0 0 0 0 0 0 0 0 25 8 5 5 5 82 100 99 96 97 99 100 100 100 100 100 100 100 100 100 100 100 100 100 100 100 100 100 100 100
0 0 0 0 0 0 0 0 0 0 0 0 0 0 0 0 0 1 17 32 48 21 5 9 60 100 86 100 93 100 100 100 100 100 100 100 100 100 100 100 100 100 100 100 100 100 100 100 100
0 0 0 0 0 0 0 0 0 0 0 0 0 0 0 0 16 41 32 56 60 100 88 43 51 47 84 57 100 100 100 100 100 100 100 100 100 100 100 100 100 100 100 100 100 100 100 100 100

GFSSGP_prec_cloud_339.txt.gz
Cloud_Cover
30 3 5 13 45 95 58 100 100 2 20 4 1 59 65 58 98 96 5 5 5 22 85 85 15 42 11 60 25 27 5 6 0 0 5 5 5 8 16 8 14 4 8 7 5 2 1 4 0
5 2 0 83 85 92 91 96 95 80 1 0 0 19 83 99 5 5 5 5 53 65 100 94 76 91 15 5 3 0 0 0 0 0 5 8 5 8 15 5 2 67 57 5 5 4 5 5 2
5 5 20 100 93 100 100 67 0 0 0 0 0 29 4 5 5 30 5 5 100 100 100 23 11 30 95 3 0 2 2 0 0 3 7 5 51 16 26 6 48 100 67 5 4 5 2 5 5
5 5 41 70 82 97 92 8 0 0 0 0 10 7 4 5 5 5 5 45 8 79 96 0 2 2 1 1 1 3 0 2 0 5 34 8 17 13 9 99 99 22 5 5 3 42 25 3 0
0 18 80 100 100 52 11 0 6 0 0 0 0 0 0 0 0 0 0 2 4 50 2 4 0 0 2 3 7 0 6 4 4 15 24 19 22 96 5 12 5 5 5 17 0 5 99 2 0
0 27 86 84 66 32 3 10 0 3 0 0 0 0 0 0 0 0 0 1 6 54 1 4 0 0 0 0 0 0 0 1 10 5 10 23 95 16 68 43 5 4 5 7 4 100 82 0 0
16 56 97 97 75 97 10 16 92 0 0 0 0 0 0 0 0 0 0 3 15 27 31 6 3 4 1 0 2 1 3 4 10 93 100 100 98 13 32 96 5 5 5 3 5 5 0 2 4
4 9 35 90 100 33 1 3 0 65 0 0 1 53 0 0 0 0 0 0 2 3 29 34 7 0 2 0 0 1 5 63 100 100 100 100 94 35 17 19 5 5 5 34 7 5 3 1 5
50 49 96 100 100 82 1 2 0 0 0 0 0 0 0 0 0 5 5 2 0 1 25 51 16 100 91 13 24 57 91 100 92 77 29 5 5 69 6 5 7 5 6 21 5 5 4 5 4
100 100 44 27 36 74 33 89 0 1 2 0 0 0 0 0 0 0 4 43 0 0 1 48 56 38 65 18 50 23 5 5 4 4 28 20 45 16 54 5 5 5 5 6 79 5 5 5 32
100 94 73 26 22 13 34 40 48 93 97 11 0 4 0 0 0 0 0 5 0 0 0 86 33 40 23 43 2 3 0 6 32 68 41 23 21 28 5 3 5 5 5 28 30 5 4 37 20
96 2 97 1 40 33 55 6 45 50 0 0 0 5 5 1 0 4 3 0 4 1 5 3 7 5 42 47 0 7 8 5 3 5 5 5 4 5 46 13 5 5 11 2 0 7 16 25 55
97 58 56 0 0 85 0 3 13 16 0 0 0 1 5 5 9 0 0 3 1 1 0 0 0 1 14 5 19 48 93 1 2 5 4 1 4 5 88 70 70 14 14 7 0 0 65 6 34
10 84 83 1 30 2 19 0 0 5 1 0 0 1 1 5 5 22 1 4 12 5 4 0 2 5 3 0 5 5 2 2 0 0 0 0 5 8 5 60 94 20 5 89 61 13 20 6 30
3 92 64 32 5 89 33 80 2 2 4 0 0 3 0 5 23 5 23 11 33 56 4 0 0 0 0 0 0 0 0 5 19 5 5 5 5 5 5 5 21 38 27 1 99 96 100 100 82
12 62 100 80 5 8 9 86 100 9 0 53 40 4 0 0 1 77 79 39 43 58 10 45 2 0 0 0 0 0 0 0 20 100 6 5 9 54 87 100 91 85 9 5 97 92 100 100 100
98 100 100 100 5 57 5 99 98 27 3 62 88 68 4 0 0 2 16 84 50 42 81 83 84 48 28 0 2 4 0 1 2 90 100 98 19 6 98 93 99 100 100 96 100 100 100 100 100
100 65 97 88 99 56 63 100 44 100 2 54 100 99 34 0 0 0 0 1 1 1 12 63 69 77 99 32 0 0 5 19 5 5 63 100 100 100 100 64 100 82 89 100 98 46 100 99 71
100 33 100 57 78 13 50 42 5 56 53 100 100 99 99 61 21 8 0 0 0 0 0 5 97 82 52 33 23 4 5 0 1 21 5 100 100 100 100 100 100 100 45 78 73 4 39 89 100
33 100 84 33 8 4 66 64 75 76 99 6 92 100 75 88 90 36 16 7 5 2 4 4 5 13 99 93 44 32 14 0 0 1 6 5 11 42 100 30 25 10 95 79 86 21 8 35 99
17 42 4 22 6 44 2 86 58 8 8 5 5 30 86 100 98 84 22 20 8 10 8 53 95 92 59 34 24 98 98 20 51 71 24 69 39 91 84 83 10 16 100 100 100 23 78 79 100
100 1 0 5 2 80 0 88 100 93 99 2 0 5 6 50 50 93 98 64 40 29 9 61 56 38 80 100 100 18 27 88 100 100 100 50 34 100 93 68 56 60 100 99 26 93 100 100 100
6 0 0 0 2 74 98 21 80 71 25 26 4 0 2 5 63 84 100 91 100 100 98 52 5 4 5 10 26 18 90 100 100 100 100 99 100 100 57 37 27 6 100 99 32 100 100 100 100
0 8 24 3 12 96 0 0 100 49 2 0 0 1 2 3 4 9 70 91 24 43 100 100 100 100 100 100 73 74 60 100 100 100 21 49 95 57 68 88 99 100 98 81 77 27 69 100 100
4 36 100 79 100 84 0 0 26 0 0 0 0 0 0 0 0 0 0 64 90 45 59 98 100 98 96 92 88 100 99 100 98 100 100 73 59 68 100 100 95 67 58 98 97 100 100 100 100
3 3 19 95 96 14 2 5 9 0 0 0 0 0 0 0 0 0 1 1 94 100 99 8 100 100 100 100 100 100 100 100 100 100 100 100 100 89 100 98 88 49 100 100 100 100 100 100 100
58 4 11 0 3 5 5 3 0 0 0 0 0 0 0 0 0 0 0 0 0 38 2 0 15 49 100 32 100 100 100 100 100 100 100 100 100 100 100 92 100 100 100 100 100 100 100 100 100
0 0 0 4 4 2 0 0 5 0 0 0 0 0 0 0 0 0 0 0 3 42 40 44 35 0 37 85 93 100 100 100 100 100 100 100 100 100 100 100 96 99 100 100 100 100 100 100 100
2 2 1 1 0 0 0 3 0 0 0 0 0 0 0 0 0 0 0 12 21 39 33 100 88 45 10 80 48 100 100 100 100 100 100 100 100 100 100 100 100 100 100 100 100 100 100 100 100
0 0 0 0 0 0 0 0 0 0 0 0 0 0 0 0 0 0 1 17 46 36 24 18 100 50 89 93 49 65 100 100 100 100 100 100 100 100 100 100 100 100 100 100 100 100 100 100 100

GFSSGP_prec_cloud_342.txt.gz
Cloud_Cover
97 100 100 100 100 100 18 19 36 7 2 0 10 100 98 26 51 100 8 5 5 5 3 5 4 2 2 71 56 4 5 5 5 5 1 7 44 91 7 2 4 8 0 18 2 1 4 0 0
100 100 100 100 100 100 85 46 83 68 0 0 0 64 32 5 73 98 20 5 54 6 8 52 0 1 0 100 90 4 1 5 5 7 6 7 68 15 5 5 100 19 5 5 1 2 3 0 0
100 100 100 100 100 88 36 41 1 0 0 20 0 19 15 9 3 4 5 32 46 94 100 99 94 5 5 5 0 2 1 1 2 2 4 5 5 5 36 96 13 4 0 0 1 16 0 0 0
100 100 100 100 100 80 5 2 0 0 0 7 28 0 0 7 2 5 0 17 38 96 95 1 5 19 0 0 0 0 0 0 0 0 99 5 6 23 77 10 4 5 2 8 3 38 3 0 0
3 5 65 99 76 34 6 29 32 4 46 16 4 0 0 9 0 0 0 68 5 91 5 0 1 1 0 0 12 3 4 1 1 14 18 18 18 5 9 3 5 1 0 0 6 0 0 0 0
100 83 35 82 84 73 63 40 49 37 6 0 0 0 0 0 0 0 10 22 0 0 0 0 0 0 0 3 0 1 0 1 3 5 7 7 18 5 8 11 4 2 5 0 0 0 4 5 8
100 100 100 78 18 96 1 61 50 5 4 3 0 0 0 0 0 2 0 7 22 2 0 0 6 0 8 5 0 1 11 16 98 45 48 48 5 14 2 5 8 5 5 5 5 5 4 5 5
100 100 100 86 100 44 28 0 37 89 0 0 92 2 0 0 0 10 0 24 100 10 0 0 0 6 3 1 5 5 8 93 99 66 42 86 9 4 0 5 5 5 0 5 90 100 100 100 100
100 100 100 34 31 5 7 15 0 0 0 0 1 0 0 0 0 5 2 2 23 93 20 0 0 5 5 50 86 67 73 9 27 5 15 0 0 0 0 5 4 5 0 5 5 95 100 90 100
100 100 99 1 89 100 80 85 8 19 19 0 0 0 0 0 0 2 0 0 6 12 13 0 0 0 6 5 0 0 0 2 0 3 8 4 0 0 0 4 1 0 0 0 28 77 100 100 100
100 100 45 82 95 15 41 32 42 35 100 45 0 0 0 0 0 0 4 7 16 20 0 78 0 0 3 12 0 0 0 4 12 41 5 1 97 1 0 0 4 4 0 0 5 5 35 100 100
100 99 3 8 2 7 93 10 29 1 52 20 0 0 0 0 0 0 1 20 7 7 16 34 48 0 45 77 0 0 28 28 0 0 0 5 15 1 3 99 25 5 44 0 0 5 31 100 100
38 74 34 1 34 39 1 84 95 5 3 0 0 1 0 0 0 0 0 11 14 2 13 0 100 4 100 33 2 64 86 42 0 0 0 2 0 0 5 5 5 82 94 32 50 4 100 94 99
99 24 37 4 18 0 64 10 75 8 14 0 3 1 0 0 0 4 1 1 0 0 0 13 1 0 18 35 0 12 92 41 4 0 0 0 2 3 5 5 5 3 12 66 82 38 12 99 93
15 99 100 52 41 96 13 81 100 78 93 2 0 0 4 18 24 1 2 0 5 5 5 0 5 0 0 0 1 0 34 0 12 96 82 0 0 0 4 42 14 6 98 7 98 94 70 36 80
100 100 100 100 100 98 48 88 97 82 100 30 15 32 4 5 6 17 15 37 5 28 59 5 5 9 6 5 4 0 0 0 0 6 96 100 97 43 3 71 70 100 30 5 5 69 100 100 98
100 100 100 100 100 100 100 100 100 100 100 100 96 0 0 13 8 1 1 0 0 3 4 4 5 52 96 84 20 5 0 0 0 5 31 25 54 100 100 28 62 66 100 94 65 100 98 81 100
100 100 100 100 91 100 100 84 25 60 100 100 100 2 0 4 4 7 16 0 0 0 0 4 5 5 56 61 97 34 5 5 1 0 1 17 12 15 100 100 100 96 52 100 100 100 100 23 52
30 100 100 95 6 16 89 96 100 71 54 100 0 0 0 5 5 4 5 12 0 0 0 4 5 5 15 90 100 100 17 27 28 9 0 0 34 21 53 35 46 62 100 100 100 100 100 51 39
25 66 96 78 12 29 49 28 26 100 51 99 3 12 99 6 5 3 0 0 0 0 1 0 0 0 3 10 71 98 100 100 100 98 46 0 2 0 90 5 0 47 83 100 100 100 100 66 12
84 3 3 17 37 100 35 24 82 89 100 100 11 73 52 69 11 12 4 5 5 5 4 4 3 4 3 3 44 100 100 90 97 100 100 62 31 83 36 14 89 100 73 87 100 100 100 100 26
4 0 0 0 8 15 15 11 6 100 100 14 5 4 27 61 8 100 65 0 1 0 5 17 5 5 5 33 9 6 70 100 95 99 100 100 82 100 100 100 62 24 5 17 8 16 100 100 21
0 0 0 4 52 32 24 23 29 90 99 69 34 13 0 0 27 72 0 0 0 0 96 100 99 19 8 5 40 96 100 43 9 92 100 100 100 100 100 52 100 100 38 4 3 3 10 79 29
0 7 13 10 100 88 10 0 5 15 1 0 0 0 0 0 0 34 16 4 100 81 4 97 99 98 60 6 53 6 42 19 69 44 70 100 100 100 100 100 100 100 36 23 26 42 28 95 84
0 50 89 98 58 66 19 0 2 0 0 0 0 0 0 0 0 0 0 0 0 76 73 100 100 42 75 33 92 100 98 100 100 100 100 100 100 100 100 100 100 100 100 76 61 68 49 100 93
0 1 72 14 67 79 75 62 2 0 0 0 0 0 0 0 0 0 15 40 100 100 99 4 100 1 17 1 62 100 100 100 100 100 100 100 100 100 100 99 100 100 75 88 89 21 28 99 100
0 0 0 0 43 52 83 71 5 0 0 0 0 0 0 0 0 0 0 22 19 100 97 0 0 9 15 14 44 84 100 100 100 100 100 100 100 100 100 100 100 100 20 100 88 100 100 94 100
0 0 0 2 26 4 32 18 55 2 0 0 0 0 0 0 0 0 0 0 0 12 61 32 13 85 26 56 16 44 89 100 100 100 100 100 100 100 100 100 100 100 100 100 100 100 86 100 100
2 0 0 3 4 4 4 66 9 0 0 0 0 0 0 0 0 0 0 0 0 4 0 21 3 14 2 1 51 78 84 55 100 100 100 100 100 100 100 100 100 100 100 100 100 98 92 99 95
0 0 0 0 0 0 0 0 3 0 0 0 0 0 0 0 0 0 0 0 0 0 0 0 20 36 47 39 59 90 18 28 82 100 100 100 100 100 100 100 100 100 100 100 100 100 100 100 88